Regional Weather Roundup
Issued by NWS

Home | Current Version | Previous Version | Text Only | Print | Product List | Glossary On
Versions: 1 2 3 4 5 6 7 8 9 10 11 12 13 14 15 16 17 18 19 20 21 22 23 24 25 26 27 28 29 30 31 32 33 34 35 36 37 38 39 40 41 42 43 44 45 46 47 48 49
000
ASUS45 KBOI 281310
RWRID

IDAHO REGIONAL WEATHER ROUNDUP
NATIONAL WEATHER SERVICE BOISE ID
700 AM MDT THU MAY 28 2015

NOTE: "FAIR" INDICATES FEW OR NO CLOUDS BELOW 12000 FEET
WITH NO SIGNIFICANT WEATHER AND/OR OBSTRUCTIONS TO VISIBILITY

IDZ012-014-281400-
SOUTHWEST IDAHO


CITY           SKY/WX    TMP DP  RH WIND       PRES   REMARKS
BOISE          CLEAR     53  43  68 SE8       30.07R
CALDWELL       CLEAR     52  39  62 N5        30.08R
MOUNTAIN HOME  CLEAR     50  43  76 VRB2      30.07R
$$

IDZ016-017-281400-
SOUTHCENTRAL IDAHO


CITY           SKY/WX    TMP DP  RH WIND       PRES   REMARKS
BURLEY         CLEAR     46  42  86 S5        30.07R
JEROME         CLEAR     48  44  86 CALM      30.09R
TWIN FALLS     CLEAR     51  43  74 S10       30.06R
$$

IDZ019>023-281400-
SOUTHEAST IDAHO


CITY           SKY/WX    TMP DP  RH WIND       PRES   REMARKS
IDAHO FALLS    CLOUDY    49  47  93 N6        30.11R
POCATELLO      MOCLDY    47  46  97 N8        30.09R
REXBURG        CLOUDY    47  45  93 NE6       30.11R
$$

IDZ006-010-011-018-031-032-281400-
CENTRAL IDAHO MOUNTAINS


CITY           SKY/WX    TMP DP  RH WIND       PRES   REMARKS
MCCALL         CLEAR     37  36  96 CALM      30.12R
HAILEY         PTCLDY    41  37  87 NW9       30.13R
STANLEY          N/A     37  35  92 NW3       30.19R
SALMON         CLOUDY    48  46  93 CALM      30.11R
CHALLIS        CLOUDY    44  40  85 CALM      30.13R
$$

IDZ002-004-006-007-026-281400-
NORTHERN IDAHO


CITY           SKY/WX    TMP DP  RH WIND       PRES   REMARKS
LEWISTON       CLOUDY    54  50  86 E6        30.07R
LOWELL           N/A     51  47  86 S3        30.14R
COEUR D`ALENE  MOCLDY    57  50  77 SE8       30.05S
MULLAN PASS    LGT RAIN  44  43  96 N3        30.15R
$$


USA.gov is the U.S. government's official web portal to all federal, state and local government web resources and services.